Cortez, CO

3:59 PM MDT on September 24, 2016 (GMT -0600)
Cortez Municipal

Weather History for KCEZ - July, 2014

Change the Weather History Date:

Wednesday, July 23, 2014

  Actual Average Record
Temperature  
Mean Temperature 84 °F 72 °F  
Max Temperature 98 °F 90 °F 98 °F (2014)
Min Temperature 70 °F 55 °F 48 °F (2000)
Degree Days  
Heating Degree Days 0 0  
Month to date heating degree days 0 0  
Since 1 June heating degree days 31 75  
Since 1 July heating degree days 0 0  
Cooling Degree Days 19 7  
Month to date cooling degree days 224 142  
Year to date cooling degree days 297 205  
Since 1 June cooling degree days 281 200  
Growing Degree Days 34 (Base 50)    
Moisture  
Dew Point 41 °F    
Average Humidity 24    
Maximum Humidity 37    
Minimum Humidity 10    
Precipitation  
Precipitation 0.00 in 0.06 in 0.56 in (2004)
Month to date precipitation 0.41 0.69  
Year to date precipitation 3.40 6.31  
Sea Level Pressure  
Sea Level Pressure 30.00 in    
Wind  
Wind Speed 9 mph (South)    
Max Wind Speed 36 mph    
Max Gust Speed 49 mph    
Visibility 10 miles    
Events      
T = Trace of Precipitation, MM = Missing Value Source: NWS Daily Summary

Daily Weather History Graph

Daily Weather History Graph

Search for Another Location

Airport or City:

Trip Planner

Search our weather history database for the weather conditions in past years. The results will help you decide how hot, cold, wet, or windy it might be!

Date:

Astronomy

Jul. 23, 2014 Rise Set
Actual Time 6:11 AM MDT 8:29 PM MDT
Civil Twilight 5:42 AM MDT 8:59 PM MDT
Nautical Twilight 5:05 AM MDT 9:35 PM MDT
Astronomical Twilight 4:26 AM MDT 10:15 PM MDT
Moon 3:32 AM MDT (7/23) 6:01 PM MDT (7/23)
Length of Visible Light 15h 16m
Length of Day
14h 17m
Waning Crescent, 9% of the Moon is Illuminated
Jul 23
Waning Crescent
Jul 26
New
Aug 3
First Quarter
Aug 10
Full
Aug 17
Last Quarter

Hourly Weather History & Observations

Time (MDT) Temp. Dew Point Humidity Pressure Visibility Wind Dir Wind Speed Gust Speed Precip Events Conditions
12:53 AM 80.1 °F 43.0 °F 27% 30.04 in 10.0 mi SE 21.9 mph 31.1 mph N/A   Clear
1:53 AM 78.1 °F 46.0 °F 32% 30.04 in 10.0 mi ESE 29.9 mph 41.4 mph N/A   Clear
2:53 AM 78.1 °F 43.0 °F 29% 30.05 in 10.0 mi NW 6.9 mph 18.4 mph N/A   Clear
3:53 AM 73.0 °F 45.0 °F 37% 30.03 in 10.0 mi SSE 4.6 mph - N/A   Clear
4:53 AM 75.9 °F 43.0 °F 31% 30.02 in 10.0 mi East 6.9 mph - N/A   Clear
5:53 AM 73.9 °F 42.1 °F 32% 30.04 in 10.0 mi Calm Calm - N/A   Clear
6:53 AM 72.0 °F 42.1 °F 34% 30.06 in 10.0 mi Calm Calm - N/A   Clear
7:53 AM 75.9 °F 44.1 °F 32% 30.09 in 10.0 mi Calm Calm - N/A   Clear
8:53 AM 82.0 °F 44.1 °F 26% 30.09 in 10.0 mi Calm Calm - N/A   Clear
10:53 AM 88.0 °F 46.0 °F 23% 30.05 in 10.0 mi SW 11.5 mph - N/A   Clear
11:53 AM 91.9 °F 43.0 °F 18% 30.04 in 10.0 mi SSW 11.5 mph - N/A   Clear
12:53 PM 93.0 °F 42.1 °F 17% 30.02 in 10.0 mi South 13.8 mph 20.7 mph N/A   Clear
1:53 PM 95.0 °F 39.9 °F 15% 29.99 in 10.0 mi South 10.4 mph 23.0 mph N/A   Clear
2:53 PM 95.0 °F 37.0 °F 13% 29.96 in 10.0 mi Variable 5.8 mph 18.4 mph N/A   Clear
3:53 PM 97.0 °F 33.1 °F 11% 29.94 in 10.0 mi Variable 6.9 mph 18.4 mph N/A   Clear
4:53 PM 97.0 °F 30.9 °F 10% 29.91 in 10.0 mi SSW 9.2 mph 16.1 mph N/A   Clear
5:53 PM 93.9 °F 33.1 °F 12% 29.91 in 10.0 mi Variable 3.5 mph - N/A   Clear
6:53 PM 93.9 °F 36.0 °F 13% 29.91 in 10.0 mi SSW 9.2 mph - N/A   Clear
7:53 PM 90.0 °F 36.0 °F 15% 29.91 in 10.0 mi South 9.2 mph - N/A   Clear
10:53 PM 79.0 °F 48.9 °F 35% 29.98 in 10.0 mi SSW 8.1 mph - N/A   Clear
11:53 PM 78.1 °F 50.0 °F 37% 30.01 in 10.0 mi ESE 10.4 mph - N/A   Mostly Cloudy